2017-008BP

Last updated on Wed Mar 01 2017 00:15:03 GMT+0000 (Coordinated Universal Time)

1 42009U 17008BP 17059.08996064 .00001635 00000-0 74486-4 0 9993 2 42009 97.5100 120.7060 0006807 229.3122 130.7537 15.22102337 1910
UTC large
Height (km)
Speed (km/s)
/
Latitude / Longitude
Inclination (degrees)
Orbital Period (minutes)
Azimuth
Elevation
Range (km)
Doppler Factor

Next 0 passes for location: London (51.5072 / 0.1276)

Sorry there are no passes over London.